#timestamp,LO_Frequency,Hit,StdDev 
1610614815.6,286047001.0,N
1610614835.5,286047000.0,N
1610614855.3,286047000.5,N
1610614875.1,286047001.1,N
1610614895.9,286047001.1,N
1610614915.7,286046998.5,N
1610614935.6,286047002.4,N
1610614955.4,286047000.5,N
1610614975.2,286047002.6,N
1610614995.1,286046999.7,N
1610614996.0,286046999.7,N
1610615015.8,286047000.7,N
1610615035.7,286047000.2,N
1610615055.5,286047002.3,N
1610615075.3,286047001.2,N
1610615095.2,286047001.2,N
1610615115.0,286046998.8,N
1610615115.9,286046998.8,N
1610615135.8,286046999.5,N
1610615155.6,286046996.8,N
1610615175.4,286046999.6,N
1610615195.3,286046998.1,N
1610615215.1,286046998.7,N
1610615235.9,286047001.2,N
1610615255.7,286046998.1,N
1610615275.5,286047000.6,N
1610615295.4,286047002.8,N
1610615315.2,286046999.8,N
1610615335.1,286046998.6,N
1610615336.0,286046998.6,N
1610615355.8,286047000.8,N
1610615375.6,286046998.3,N
1610615395.5,286046998.8,N
1610615415.3,286046999.4,N
1610615435.1,286046997.7,N
1610615455.9,286046997.2,N
1610615475.7,286046995.0,Y
1610615495.6,286046998.2,P
1610615515.4,286047000.7,N
1610615535.2,286046999.2,N
1610615555.1,286046996.5,Y
1610615556.0,286046996.5,P
1610615575.8,286046996.9,N
1610615595.7,286046999.5,N
1610615615.5,286046998.8,N
1610615635.3,286046998.8,N
1610615655.2,286046999.0,N
1610615675.0,286046998.8,N
1610615675.9,286046998.8,N
1610615695.8,286046998.4,N
1610615715.6,286046997.1,Y
1610615735.4,286046999.4,P
1610615755.3,286046999.6,N
1610615775.1,286046999.2,N
1610615795.9,286046998.2,Y
1610615815.7,286047002.4,P
1610615835.5,286047001.5,N
1610615855.4,286047002.3,N
1610615875.2,286047002.2,N
1610615895.1,286047004.4,Y
1610615896.0,286047004.4,P
1610615915.8,286047002.3,N
1610615935.6,286047000.3,N
1610615955.5,286047000.8,N
1610615975.3,286047000.5,N
1610615995.2,286046999.8,N
1610616015.9,286047000.2,N
1610616035.7,286047001.0,N
1610616055.6,286047001.0,N
1610616075.4,286047000.4,N
1610616095.2,286046999.9,N
1610616115.1,286047001.1,N
1610616116.0,286047001.1,N
1610616135.8,286047001.2,N
1610616155.7,286046996.9,N
1610616175.5,286046998.4,N
1610616195.3,286046999.5,N
1610616215.2,286046998.9,N
1610616235.0,286046999.0,N
1610616235.9,286046999.0,N
1610616255.8,286046997.2,N
1610616275.6,286046998.7,N
1610616295.4,286047000.3,N
1610616315.3,286047002.4,N
1610616335.1,286046999.7,N
1610616355.9,286046999.7,N
1610616375.7,286047000.8,N
1610616395.5,286046998.5,N
1610616415.4,286046997.6,N
1610616435.2,286046999.2,N
1610616455.0,286046997.1,N
1610616456.0,286046997.1,N
1610616475.8,286046997.2,N
1610616495.6,286046994.9,Y
1610616515.5,286046997.3,P
1610616535.3,286046995.0,P
1610616555.1,286046995.1,N
1610616575.9,286046995.7,N
1610616595.7,286046997.6,N
1610616615.6,286046997.7,N
1610616635.4,286046998.0,N
1610616655.2,286046994.9,Y
1610616675.1,286047001.1,P
1610616676.0,286047001.1,N
1610616695.8,286047000.8,N
1610616715.7,286047001.2,N
1610616735.5,286046998.3,N
1610616755.3,286047000.0,N
1610616775.2,286046999.0,N
1610616795.0,286046998.1,N
1610616795.9,286046998.1,N
1610616815.7,286047001.1,N
1610616835.6,286047000.0,N
1610616855.4,286047001.5,N
1610616875.3,286047001.7,N
1610616895.1,286047002.4,N
1610616896.0,286047002.4,N
1610616915.8,286047000.6,N
1610616935.7,286047000.0,N
1610616955.5,286047000.5,N
1610616975.3,286047000.6,N
1610616995.2,286047000.9,N
1610617015.0,286047001.0,N
1610617015.9,286047001.0,N
1610617035.8,286046997.8,N
1610617055.6,286046997.9,N
1610617075.4,286046997.3,N
1610617095.3,286046996.5,N
1610617115.1,286046999.5,N
1610617135.8,286046997.9,N
1610617155.7,286046999.6,N
1610617175.5,286046996.9,N
1610617195.4,286046999.2,N
1610617215.2,286046999.1,N
1610617235.0,286046996.7,N
1610617235.9,286046996.7,N
1610617255.8,286046997.2,N
1610617275.6,286046999.1,N
1610617295.5,286046999.1,N
1610617315.3,286046997.4,N
1610617335.1,286046999.2,N
1610617355.9,286046997.3,N
1610617375.7,286046997.2,N
1610617395.6,286046999.3,N
1610617415.4,286046999.1,N
1610617435.2,286046996.9,N
1610617455.1,286046996.7,N
1610617456.0,286046996.7,N
1610617475.8,286046997.3,N
1610617495.6,286046997.4,N
1610617515.5,286046997.5,N
1610617535.3,286046997.4,N
1610617555.2,286046995.0,Y
1610617575.9,286046998.4,P
1610617595.7,286046998.5,P
1610617615.6,286047001.0,P
1610617635.4,286046998.6,N
1610617655.2,286047000.9,N
1610617675.1,286046999.1,N
1610617676.0,286046999.1,N
1610617695.8,286046997.3,N
1610617715.7,286046997.1,N
1610617735.5,286046996.7,N
1610617755.3,286046999.3,N
1610617775.2,286046996.7,N
1610617795.0,286046997.8,N
1610617795.9,286046997.8,N
1610617815.8,286046998.6,N
1610617835.6,286046998.6,N
1610617855.5,286046999.3,N
1610617875.3,286046998.8,N
1610617895.1,286047000.4,N
1610617915.9,286046999.8,N
1610617935.7,286046998.7,N
1610617955.5,286046999.0,N
1610617975.4,286047000.8,N
1610617995.2,286046998.6,N
1610618015.1,286046998.1,N
1610618016.0,286046998.1,N
1610618035.8,286046998.7,N
1610618055.6,286046999.5,N
1610618075.5,286046999.4,N
1610618095.3,286046999.0,N
1610618115.1,286046998.8,N
1610618135.9,286046998.8,N
1610618155.7,286046999.1,N
1610618175.6,286047000.6,N
1610618195.4,286047000.6,N
1610618215.2,286047001.0,N
1610618265.1,286047000.2,E
1610618275.0,286047000.0,N
1610618275.9,286047000.0,P
1610618295.8,286047001.2,P
1610618315.7,286047001.8,Y
1610618335.5,286047002.7,P
1610618355.4,286047000.4,N
1610618375.2,286047000.5,N
1610618395.0,286047002.5,N
1610618395.9,286047002.5,N
